Theta_e
350 349 345 344 346 344 334 328 331 335 335 335 331 332 331 328 332 331 329 337 337 333 332 331 331 329 330 331 332 332 336 342 347 351 351 352 352 352 351 350 350 349 350
348 343 342 337 339 341 340 337 337 337 334 334 332 329 329 329 330 330 331 333 340 338 335 333 332 331 329 331 332 333 335 339 342 347 349 350 351 352 352 351 350 350 348
344 343 340 338 338 341 340 338 336 333 331 332 330 330 331 331 327 329 328 328 329 340 339 334 334 331 330 331 332 333 334 337 339 344 347 347 347 347 350 351 351 350 348
335 338 337 337 339 340 340 338 333 332 329 327 327 328 330 328 328 328 328 327 326 325 334 339 335 332 330 332 332 333 333 336 337 340 345 343 346 346 347 349 350 350 349
331 332 333 335 334 335 333 331 330 329 327 327 328 328 329 329 328 327 325 326 324 322 321 330 336 336 332 331 334 333 335 334 336 338 343 343 344 344 345 347 349 349 348
328 328 325 327 327 327 330 331 329 330 329 327 327 325 326 327 328 326 325 324 323 322 321 323 323 324 331 326 328 330 333 334 336 337 341 342 342 342 342 344 344 347 348
325 324 322 322 322 321 322 325 324 321 319 321 318 317 320 323 320 322 323 319 318 320 321 321 322 322 323 327 327 329 332 333 335 336 338 338 340 340 341 342 343 344 345
325 321 323 320 321 319 320 320 319 316 316 318 314 313 308 310 317 320 319 318 318 319 318 318 321 320 320 323 322 327 329 330 332 336 337 338 338 340 340 341 341 342 342
324 323 320 320 319 320 317 317 317 316 313 315 318 314 306 305 310 316 318 317 316 316 318 320 321 321 322 320 323 322 326 327 329 333 337 338 339 338 339 339 339 341 342
322 321 321 320 322 320 319 317 316 317 316 313 315 319 317 314 307 305 312 315 317 316 318 318 318 319 320 321 322 323 323 326 327 330 333 338 338 338 338 338 339 340 342
319 320 320 321 320 320 319 319 318 318 318 316 315 314 315 314 313 309 305 308 313 315 316 317 318 318 318 320 321 321 321 322 324 326 330 334 336 337 337 337 337 338 339
317 320 320 320 321 320 319 318 319 318 317 317 317 315 313 311 310 309 307 308 308 311 314 316 316 318 318 319 323 323 323 321 324 324 324 326 327 328 333 335 336 336 336
317 319 320 320 319 320 319 319 318 318 317 316 315 314 315 314 314 312 309 307 306 310 312 315 315 315 317 315 318 322 322 322 321 322 322 323 324 325 327 329 331 333 334
318 321 320 321 319 318 318 317 317 316 316 316 315 315 315 314 317 314 311 309 304 307 310 309 313 311 312 312 318 321 318 320 320 319 318 319 320 322 323 325 327 329 331
320 320 319 318 318 317 317 317 315 315 316 316 316 316 315 315 316 315 314 313 309 302 304 308 308 308 309 309 315 310 314 317 318 317 316 316 317 318 320 321 323 325 327
320 319 317 316 315 315 316 316 315 316 314 315 315 315 316 316 315 314 314 314 313 308 303 309 305 307 306 307 310 307 309 312 314 315 315 315 315 316 317 319 320 321 323
320 316 316 314 314 315 316 315 315 314 313 313 314 314 312 314 312 314 314 314 313 311 307 306 306 307 305 304 303 304 305 304 307 313 313 314 313 313 315 316 317 319 321
319 316 317 315 314 313 314 313 312 313 311 311 310 311 311 313 311 313 314 313 312 312 308 302 304 303 303 304 303 302 303 303 304 310 310 311 312 312 313 313 314 315 319
318 316 317 314 312 311 311 313 312 312 310 310 309 310 310 310 310 312 312 310 310 311 310 304 301 304 303 305 303 303 301 301 302 307 307 308 309 310 310 312 313 314 314
316 317 316 314 313 311 310 312 312 311 310 309 309 310 310 308 308 310 310 310 310 309 307 304 304 304 304 304 304 301 299 299 299 302 304 306 307 308 308 309 313 316 313
317 317 315 314 314 311 308 309 313 312 310 308 308 308 310 310 310 309 309 309 309 307 306 304 302 301 300 300 300 302 301 300 299 299 299 301 301 302 304 306 309 313 312
319 317 316 314 313 310 304 306 310 312 310 309 308 307 308 309 310 309 308 308 307 306 304 302 302 300 300 300 300 299 299 297 293 299 297 298 300 299 302 304 306 307 306
320 318 317 314 313 311 302 302 306 314 311 310 309 307 305 307 307 309 308 308 307 307 307 306 303 302 300 300 299 297 296 295 294 297 298 295 299 297 300 303 305 304 304
320 319 318 317 314 310 302 301 303 313 312 311 311 310 308 307 305 305 306 306 304 302 303 306 306 301 301 302 301 300 299 298 299 300 300 292 297 296 299 300 303 303 302
322 319 318 316 316 314 300 301 304 315 314 312 312 309 310 309 301 301 305 304 302 301 302 302 300 300 299 300 301 302 301 302 295 294 297 295 295 295 297 297 300 301 301
319 319 318 318 311 316 299 301 302 312 313 313 314 309 304 305 300 299 307 308 305 302 301 301 300 300 300 301 302 302 303 302 297 294 298 297 296 297 294 298 297 298 299
Wind_Speed
4 6 7 7 6 3 5 4 3 4 11 6 7 13 10 5 3 2 0 13 11 10 10 10 8 6 6 9 9 11 13 12 11 11 12 12 12 11 10 9 8 7 7
5 7 6 8 14 6 4 6 6 4 10 8 4 10 7 10 15 16 8 3 15 14 14 13 11 9 5 8 10 12 13 13 13 13 13 13 13 13 13 12 11 10 9
7 7 6 4 6 6 5 1 7 9 10 10 7 4 3 6 4 13 10 11 6 7 14 13 14 9 7 8 12 14 15 14 15 14 15 14 13 13 13 14 13 12 11
12 10 7 7 7 7 6 4 2 3 4 3 5 4 3 2 9 6 5 7 5 4 2 13 15 12 9 11 13 12 13 15 15 16 15 16 15 13 12 13 14 14 14
14 11 8 5 6 3 5 5 4 1 4 4 4 6 5 5 7 8 10 11 5 5 4 11 14 8 11 8 12 12 13 13 16 17 15 17 16 15 13 12 13 14 14
12 10 10 10 10 8 5 4 6 5 4 6 6 7 3 4 6 7 7 5 2 2 2 5 4 4 8 5 7 11 12 14 15 18 17 17 17 16 15 14 12 12 14
9 7 8 9 10 10 10 8 6 8 8 8 5 5 4 4 5 5 3 2 1 4 6 3 2 2 3 9 9 11 15 14 17 18 19 19 18 17 16 14 13 11 10
6 8 8 9 10 9 10 10 10 6 6 7 5 5 3 5 1 1 3 2 3 3 3 3 1 1 3 4 6 11 11 13 16 18 20 18 19 19 17 15 13 12 11
7 7 7 5 7 7 6 7 7 8 7 6 5 2 3 2 6 2 3 3 1 3 4 2 4 4 4 5 6 7 10 14 15 17 17 18 20 19 18 16 14 12 11
10 9 7 4 5 4 4 4 6 6 5 7 7 3 4 3 3 5 4 2 3 3 5 2 4 4 4 3 7 7 6 12 16 17 16 18 20 19 19 16 14 13 12
7 8 10 9 7 5 6 6 6 6 3 4 4 5 4 4 3 2 3 4 3 4 4 2 3 4 3 4 4 7 5 12 15 12 15 12 17 19 17 15 14 13 13
9 12 11 8 7 7 8 7 8 8 7 5 4 4 3 2 3 2 2 4 4 4 3 4 4 4 5 5 9 13 10 10 10 4 6 6 4 1 7 12 14 14 14
7 9 9 9 8 9 10 8 8 6 7 7 7 5 4 4 3 3 2 3 2 3 1 4 4 5 7 7 9 15 12 9 0 6 8 7 5 4 6 6 7 10 13
8 9 9 9 10 10 9 9 6 8 8 6 8 6 4 4 2 2 2 0 3 2 3 2 6 7 7 7 15 19 9 2 8 10 10 9 9 4 9 9 9 10 12
8 10 10 11 10 10 10 10 8 7 8 8 8 7 4 3 2 3 2 2 1 2 2 4 3 8 5 5 9 8 7 21 17 13 7 8 11 10 9 11 10 11 13
10 9 10 9 10 11 10 10 9 9 8 7 8 9 4 2 3 4 3 2 2 2 1 3 4 3 5 3 8 7 7 11 19 16 13 9 7 10 11 12 14 16 16
9 10 9 9 9 10 11 9 9 10 11 10 12 9 8 7 4 3 3 2 2 1 2 2 3 4 4 4 6 6 6 7 6 15 16 16 14 10 8 13 15 17 17
7 8 9 8 8 10 10 11 11 10 10 11 12 11 10 6 7 6 4 4 4 4 5 6 4 3 3 4 6 6 5 6 6 15 15 15 17 15 12 7 13 16 16
9 7 8 8 8 11 11 9 9 10 10 11 11 12 11 11 10 6 5 5 5 3 5 5 2 1 2 2 1 2 6 6 6 15 16 17 16 17 16 14 6 11 17
7 8 10 9 7 9 10 10 10 10 9 9 10 10 11 11 11 9 6 5 3 4 5 4 2 1 2 1 2 1 3 5 6 6 14 17 16 19 21 18 13 7 15
4 7 7 6 7 8 7 9 9 7 7 6 6 8 9 14 17 16 6 8 7 6 5 5 4 3 2 2 2 1 1 1 5 8 7 10 8 9 13 18 15 14 11
4 6 7 5 8 6 11 13 10 7 8 9 9 10 7 11 9 13 17 20 14 6 7 4 3 3 2 2 3 3 3 3 4 5 7 10 9 10 10 11 22 23 21
5 6 6 5 7 7 12 13 12 3 5 7 8 7 7 7 12 9 9 10 12 11 10 4 3 3 2 3 2 3 5 4 3 3 2 7 8 10 10 12 25 26 25
4 4 5 5 6 5 9 13 16 6 5 5 6 5 5 5 7 7 8 7 8 7 7 4 6 4 3 2 2 2 1 1 2 3 0 5 6 8 9 11 28 27 27
3 4 5 6 5 4 9 10 10 2 2 3 4 4 5 6 7 6 4 3 5 5 7 10 8 7 6 6 4 1 1 2 3 1 2 3 3 6 7 9 11 25 25
3 3 4 4 4 3 5 9 10 6 6 2 5 4 6 4 5 4 3 3 3 2 1 2 1 1 3 5 8 4 4 3 2 1 3 2 4 2 4 4 7 7 8
Wind_Direction
317 313 320 307 263 158 175 238 250 215 251 202 210 251 290 245 8 29 241 185 196 185 207 225 236 256 282 289 285 283 278 281 280 235 216 207 204 203 206 207 218 212 201
348 329 5 19 307 356 355 30 274 269 197 214 68 49 51 11 4 359 322 231 203 200 212 225 230 237 260 293 297 287 275 271 271 264 217 208 204 202 205 213 211 209 204
359 3 357 302 318 340 20 289 359 1 25 360 35 29 356 95 72 280 274 319 305 251 221 226 231 237 256 265 289 288 276 265 264 270 232 205 197 197 204 207 210 213 207
22 5 31 13 347 343 353 25 31 158 278 142 252 288 281 197 206 235 255 283 283 312 259 227 224 224 234 259 284 290 284 273 262 259 250 213 195 197 200 208 209 208 211
22 5 8 350 344 1 354 359 345 1 327 310 304 275 237 207 218 226 239 236 267 277 285 345 354 200 223 340 335 294 290 276 269 257 253 222 198 192 193 197 205 208 208
25 17 1 2 360 346 332 334 327 317 277 276 283 309 277 249 231 228 220 251 317 302 91 63 357 310 344 350 332 313 300 311 280 258 246 234 206 194 189 186 190 205 209
19 14 4 351 6 351 341 5 1 344 339 337 352 332 275 250 327 26 51 67 354 355 354 353 253 281 322 338 350 322 318 309 308 256 249 236 213 197 190 189 182 184 194
24 24 18 11 359 344 5 14 12 351 326 352 339 315 316 332 197 64 79 18 345 311 326 330 10 336 311 317 301 316 309 316 310 306 235 229 224 198 192 186 184 185 188
44 51 53 15 350 0 1 360 358 346 326 321 318 310 327 337 340 311 189 203 252 300 292 319 303 262 277 260 268 291 313 322 316 318 281 218 223 205 191 187 190 190 194
38 54 28 14 340 336 353 340 328 319 330 324 334 9 330 257 288 325 344 273 196 260 271 273 283 292 278 306 310 280 314 316 321 327 307 224 214 207 193 184 191 192 196
54 23 18 359 357 343 338 324 311 307 309 306 309 329 329 324 320 295 298 317 336 301 277 250 311 294 303 305 330 310 301 313 315 324 346 239 222 209 195 186 187 191 207
358 19 2 349 352 354 341 346 334 331 327 324 319 319 330 299 309 298 298 297 304 308 319 27 32 12 357 343 325 305 303 286 298 351 356 2 317 279 207 199 203 204 213
353 354 352 355 351 359 357 348 332 341 343 338 334 314 301 286 268 277 268 279 319 301 337 44 37 36 20 360 326 314 305 283 191 36 349 336 281 269 260 225 226 234 232
347 3 350 3 5 355 353 352 343 349 350 336 323 317 298 287 251 262 241 208 311 273 62 47 43 34 24 351 16 31 2 353 70 61 350 330 304 265 261 251 249 252 251
355 6 11 357 10 2 355 355 349 354 344 340 325 315 277 294 278 276 270 233 224 303 0 56 69 45 358 352 17 32 15 39 42 39 5 312 291 277 253 257 258 253 255
16 14 6 13 3 353 356 355 353 352 357 349 346 349 356 28 16 344 316 273 217 227 37 30 68 54 358 9 23 22 26 31 29 23 28 14 332 297 276 261 244 245 246
20 0 16 1 5 355 358 357 4 6 11 6 4 13 28 30 15 340 339 34 339 27 105 100 83 44 27 19 22 18 27 29 13 23 23 13 20 0 304 265 254 242 239
18 10 357 24 356 12 355 5 10 11 23 18 10 18 22 7 6 4 11 29 42 18 114 112 62 21 25 39 36 26 13 35 16 23 28 20 22 20 13 303 258 245 233
11 0 13 31 1 12 3 1 16 15 39 24 17 16 25 19 16 2 38 28 24 50 58 75 95 34 46 19 66 56 27 16 18 23 15 17 23 24 21 16 327 241 229
24 21 1 31 354 26 11 3 13 35 33 32 22 20 28 29 20 13 29 6 355 69 92 95 91 91 51 6 89 10 33 34 20 11 19 21 17 22 26 21 15 242 207
18 37 9 14 13 25 16 356 8 42 43 37 32 31 26 44 45 44 32 17 40 62 65 66 58 52 28 9 4 342 139 66 38 17 8 16 11 18 20 22 23 62 104
25 33 4 29 33 25 340 348 2 45 35 31 40 34 34 25 46 60 58 53 43 52 68 75 57 51 30 20 14 354 358 19 3 7 3 19 12 24 26 28 37 58 70
37 25 13 53 49 20 356 342 344 73 52 41 48 58 42 27 16 24 39 60 57 52 55 40 62 45 61 23 21 45 46 78 89 287 16 29 2 27 21 31 43 54 64
42 20 21 46 55 45 358 344 340 52 50 52 51 65 51 31 26 6 349 37 53 39 17 34 57 64 82 105 92 78 60 96 208 256 199 56 6 36 20 32 36 49 58
22 45 13 56 61 49 358 348 341 331 96 69 91 33 32 29 3 357 323 59 47 49 61 83 86 105 129 149 179 284 200 218 97 36 346 112 193 68 37 35 32 46 49
31 35 31 63 59 98 23 0 0 322 10 14 126 149 71 37 346 4 328 228 150 169 141 139 129 188 218 247 242 240 292 279 147 200 209 155 197 174 61 16 45 39 44